Regional Weather Roundup
Issued by NWS

Home | Current Version | Previous Version | Graphics & Text | Print | Product List | Glossary On
Versions: 1 2 3 4 5 6 7 8 9 10 11 12 13 14 15 16 17 18 19 20 21 22 23 24 25 26 27 28 29 30 31 32 33 34 35 36 37 38 39 40 41 42 43 44 45 46 47 48 49 50
000
ASUS43 KMPX 170910
RWRMN
WEATHER ROUNDUP FOR MINNESOTA
NATIONAL WEATHER SERVICE TWIN CITIES/CHANHASSEN MN
400 AM CDT WED SEP 17 2014


NOTE: "FAIR" INDICATES FEW OR NO CLOUDS BELOW 12,000 FEET WITH NO
SIGNIFICANT WEATHER AND/OR OBSTRUCTIONS TO VISIBILITY. N/A MEANS
CURRENT SKY AND/OR WEATHER CONDITIONS ARE NOT AVAILABLE.

MNZ060>063-068>070-171000-
   Twin Cities Metro

CITY           SKY/WX    TMP DP  RH WIND       PRES   REMARKS
TWIN CITIES    CLOUDY    56  47  71 VRB3      29.96F
ST PAUL        CLOUDY    55  49  80 SE5       29.97F
CRYSTAL        CLOUDY    57  48  72 S7        29.94F
BLAINE         MOCLDY    55  50  82 S5        29.95F
LAKEVILLE      CLOUDY    54  48  82 CALM      29.97F
EDEN PRAIRIE   CLOUDY    57  48  72 SW7       29.95F
SOUTH ST PAUL  CLOUDY    55  48  80 CALM      29.96F
LAKE ELMO      CLOUDY    52  48  87 S3        29.97F
$$
MNZ001>005-007-008-013>017-022>024-027-028-171000-
   Northwest Minnesota

CITY           SKY/WX    TMP DP  RH WIND       PRES   REMARKS
BEMIDJI        PTCLDY    40  37  91 CALM      29.91F
HALLOCK        PTCLDY    48  43  81 N3        29.91S
ROSEAU         PTCLDY    48  43  81 CALM      29.92S
WARROAD        PTCLDY    48  45  87 CALM      29.92F
THIEF RVR FALL CLEAR     48  43  81 CALM      29.90S
CROOKSTON      CLEAR     46  43  87 CALM      29.91S
FOSSTON        CLEAR     43  39  87 S5        29.91S
DETROIT LAKES  CLEAR     50  46  87 SE3       29.92F
MOORHEAD       CLEAR     52  52 100 S3        29.90S
PARK RAPIDS    CLEAR     43  40  89 CALM      29.92F
MAHNOMEN       FAIR      49  44  82 SE3       29.90F
$$
MNZ006-009>011-018-025>026-171000-
   North Central Minnesota

CITY           SKY/WX    TMP DP  RH WIND       PRES   REMARKS
BAUDETTE       MOCLDY    53  45  74 VRB5      29.91R
FLAG ISLAND    LGT RAIN  52  46  82 CALM      29.89F
INTL FALLS     CLOUDY    52  45  77 NW8       29.91R
WASKISH        MOCLDY    52  45  76 CALM      29.90R
BIG FORK       CLEAR     43  41  93 SW1       29.92R
LONGVILLE      CLEAR     41  39  93 CALM      29.92S
GRAND RAPIDS   CLEAR     48  41  76 SW6       29.92S
CRANE LAKE     CLOUDY    54  45  71 S3        29.89S
ORR            MOCLDY    52  43  71 CALM      29.88R
COOK           MOCLDY    50  45  81 W3        29.91S
WALKER         FAIR      48  42  77 SW3       29.91F
$$
MNZ012-019>021-037-171000-
   Northeast Minnesota

CITY           SKY/WX    TMP DP  RH WIND       PRES   REMARKS
DULUTH         PTCLDY    48  41  76 SW5       29.93F
ELY            CLOUDY    52  43  71 SW3       29.90S
HIBBING        CLEAR     40  37  89 SW3       29.92S
EVELETH        PTCLDY    45  41  87 W5        29.92S
DULUTH HARBOR  PTCLDY    52  48  87 E3        29.95S
TWO HARBORS    PTCLDY    41  36  81 CALM      29.91F
SILVER BAY     PTCLDY    41  41 100 CALM      29.91S
GRAND MARAIS     N/A     47  43  86 VRB3      29.91F
G MARAIS ARPRT MOCLDY    41  37  87 CALM      29.91F FOG
$$
MNZ029>031-032-039>041-046>048-054>057-064-171000-
   West Central Minnesota

CITY           SKY/WX    TMP DP  RH WIND       PRES   REMARKS
FERGUS FALLS   CLEAR     52  45  76 SE6       29.91F
WHEATON        CLEAR     45  43  93 SE7       29.92S
MORRIS         CLEAR     48  46  93 SE6       29.90F
ALEXANDRIA     CLEAR     50  46  86 S5        29.93F
ELBOW LAKE     FAIR      51  48  87 SE5       29.91S
WADENA         CLEAR     43  39  87 CALM      29.92S
GLENWOOD       CLEAR     46  46 100 S5        29.93F
APPLETON       CLEAR     54  48  82 CALM      29.91S
BENSON         CLEAR     52  48  87 S5        29.92F
ORTONVILLE     CLEAR     52  46  82 SE3       29.91S
MADISON        CLEAR     54  50  87 SE3       29.91F
WILLMAR        MOCLDY    54  48  82 E3        29.95S
$$
MNZ033>034-036-042>043-049>051-058-059-171000-
   Central Minnesota

CITY           SKY/WX    TMP DP  RH WIND       PRES   REMARKS
ST CLOUD       MOCLDY    52  48  86 SE6       29.94F
SAUK CENTRE    FAIR      48  46  93 CALM      29.93F
PAYNESVILLE    MOCLDY    51  48  90 CALM      29.94S
AITKIN         HAZE      45  39  81 CALM      29.92S VSB 1/2
PINE RIVER     CLEAR     39  39 100 CALM      29.96S
BRAINERD       CLEAR     44  43  96 CALM      29.94S
STAPLES        CLEAR     43  43 100 CALM      29.93S
LONG PRAIRIE   MOCLDY    45  45 100 CALM      29.93F
LITTLE FALLS   CLEAR     43  41  93 CALM      29.93F FOG
LITCHFIELD     MOCLDY    55  54  94 CALM      29.95F
BUFFALO        CLOUDY    56  48  73 CALM      29.96S
MAPLE LAKE     CLOUDY    56  51  82 CALM      29.95F
$$
MNZ037-044-045-052-053-171000-
   East Central Minnesota

CITY           SKY/WX    TMP DP  RH WIND       PRES   REMARKS
PRINCETON      PTCLDY    48  46  93 CALM      29.95S
MORA           CLEAR     43  41  93 CALM      29.96F
CAMBRIDGE      MOCLDY    52  43  71 CALM      29.93F
RUSH CITY      MOCLDY    47  44  90 CALM      29.95S
MOOSE LAKE     PTCLDY    37  37 100 CALM      29.92F FOG
HINCKLEY       CLOUDY    41  41 100 CALM      29.94F
CLOQUET        PTCLDY    45  39  81 CALM      29.94S
MCGREGOR       CLEAR     45  43  93 CALM      29.94S
$$
MNZ071>073-080-081-089-090-097-098-171000-
   Southwest Minnesota

CITY           SKY/WX    TMP DP  RH WIND       PRES   REMARKS
MONTEVIDEO     PTCLDY    54  50  87 SW5       29.92F
GRANITE FALLS  MOCLDY    51  49  95 SE5       29.94F
CANBY          CLEAR     57  49  75 SW8       29.91F
MARSHALL       PTCLDY    55  46  71 S8        29.91F
REDWOOD FALLS  MOCLDY    57  51  80 S3        29.93F
OLIVIA         CLOUDY    55  50  82 S3        29.93F
PIPESTONE      PTCLDY    54  48  82 S5        29.94F
WINDOM         CLOUDY    57  48  72 S5        29.95F
WORTHINGTON    MOCLDY    52  48  87 S6        29.96F
JACKSON        CLOUDY    55  46  71 S7        29.97F
TRACY          PTCLDY    56  50  80 S8        29.93F
SLAYTON        MOCLDY    54  49  85 CALM      29.95F
$$
MNZ065>067-074>077-082>085-091>093-171000-
   South Central Minnesota

CITY           SKY/WX    TMP DP  RH WIND       PRES   REMARKS
MANKATO        PTCLDY    54  45  71 S6        29.96F
NEW ULM        CLOUDY    55  52  88 S7        29.95S
ST JAMES       CLOUDY    55  48  76 S5        29.97F
FAIRMONT       CLOUDY    52  45  76 S6        29.97F
GLENCOE        CLOUDY    57  48  70 S5        29.95F
FARIBAULT      CLOUDY    57  46  67 S3        29.98F
OWATONNA       PTCLDY    54  46  76 S3        29.98F
WASECA         MOCLDY    50  43  76 CALM      29.99F
ALBERT LEA     CLOUDY    55  46  71 S6        29.99F
$$
MNZ078>079-086>088-094>096-171000-
   Southeast Minnesota

CITY           SKY/WX    TMP DP  RH WIND       PRES   REMARKS
ROCHESTER      CLOUDY    49  45  86 S6        30.00F
RED WING       CLOUDY    55  46  71 CALM      29.97F
STANTON        CLOUDY    55  47  74 S3        29.96F
DODGE CENTER   CLOUDY    52  46  82 S5        29.99F
WINONA         CLOUDY    48  48 100 CALM      30.01F
AUSTIN         CLOUDY    48  46  93 CALM      30.00F
PRESTON        CLOUDY    48  47  97 SW5       30.02S
$$
ABBREVIATIONS USED IN REMARKS
   TC - TEMPERATURES IN CELSIUS
  WCI - WIND CHILL INDEX
   HX - HEAT INDEX
  VSB - VISIBILITY
$$


USA.gov is the U.S. government's official web portal to all federal, state and local government web resources and services.